Terminal Aerodrome Forecast
Issued by NWS Quad Cities IA IL

Home | Current Version | Previous Version | Text Only | Print | Product List | Glossary On
Versions: 1 2 3 4 5 6 7 8 9 10 11 12 13 14 15 16 17 18 19 20 21 22 23 24 25 26
000
FTUS43 KDVN 291433 AAA
TAFDBQ
TAF AMD
KDBQ 291433Z 2915/3012 03010KT P6SM BKN012
     FM291900 06009KT P6SM SCT008 BKN020
     FM300000 07009KT P6SM SCT011 OVC019
     FM300900 07015KT P6SM SCT008 OVC013=

USA.gov is the U.S. government's official web portal to all federal, state and local government web resources and services.